�N����,����,�~����,�C��,���x,�C��,����,���ϕ���,�ő�u�ԕ���,�ő厞����,���˗�,�I�_���x,�n�����x,�ő啗���N��,DTYPE
"22/07/11","00:10",0.0,24.8,90.5,1000.8,312.3,1.0,1.6,318.6,0.00,23.2,25.5,"00:02:48",1
"22/07/11","00:20",0.0,24.7,90.7,1001.0,302.8,0.7,1.2,276.3,0.00,23.1,25.4,"00:19:44",1
"22/07/11","00:30",0.0,24.6,90.9,1001.0,303.8,0.8,1.8,318.9,0.00,23.1,25.4,"00:22:56",1
"22/07/11","00:40",0.0,24.6,91.0,1001.0,300.8,1.0,1.3,319.7,0.00,23.1,25.5,"00:31:44",1
"22/07/11","00:50",0.0,24.5,91.2,1001.2,294.6,0.7,1.3,312.9,0.00,23.0,25.5,"00:42:08",1
"22/07/11","01:00",0.0,24.4,91.3,1001.0,310.9,1.1,1.7,316.1,0.00,22.9,25.4,"00:59:04",1
"22/07/11","01:10",0.0,24.4,91.4,1001.5,318.7,1.2,1.9,317.0,0.00,22.9,25.5,"01:03:36",1
"22/07/11","01:20",0.0,24.3,91.5,1001.7,285.1,0.7,1.2,255.9,0.00,22.9,25.4,"01:16:48",1
"22/07/11","01:30",0.0,24.3,91.6,1001.2,310.0,1.0,1.7,328.1,0.00,22.9,25.2,"01:25:44",1
"22/07/11","01:40",0.0,24.3,91.8,1001.2,314.6,0.8,1.2,347.1,0.00,22.9,25.3,"01:38:40",1
"22/07/11","01:50",0.0,24.3,91.8,1001.2,322.2,1.0,1.3,333.8,0.00,22.9,25.4,"01:41:20",1
"22/07/11","02:00",0.0,24.2,91.9,1001.0,272.5,0.5,0.9,272.5,0.00,22.8,25.4,"01:51:04",1
"22/07/11","02:10",0.0,24.2,92.0,1000.8,274.7,0.8,1.3,324.1,0.00,22.9,25.3,"02:08:28",1
"22/07/11","02:20",0.0,24.2,92.1,1001.2,314.7,1.1,2.0,318.0,0.00,22.9,25.5,"02:14:56",1
"22/07/11","02:30",0.0,24.1,92.1,1001.2,303.7,1.0,1.7,300.4,0.00,22.8,25.3,"02:21:04",1
"22/07/11","02:40",0.0,24.0,92.2,1001.2,303.9,1.0,1.6,332.4,0.00,22.7,25.4,"02:30:48",1
"22/07/11","02:50",0.0,24.0,92.3,1001.2,306.4,1.1,1.9,322.3,0.00,22.7,25.3,"02:42:24",1
"22/07/11","03:00",0.0,24.0,92.3,1001.2,333.7,1.0,1.8,315.6,0.00,22.7,25.2,"02:51:28",1
"22/07/11","03:10",0.0,23.8,92.3,1001.0,309.1,0.8,1.2,334.4,0.00,22.5,25.2,"03:01:04",1
"22/07/11","03:20",0.0,23.7,92.4,1001.2,294.2,1.0,1.7,312.3,0.00,22.4,25.3,"03:15:20",1
"22/07/11","03:30",0.0,23.6,92.6,1001.2,312.1,0.8,1.4,334.5,0.00,22.4,25.2,"03:29:04",1
"22/07/11","03:40",0.0,23.7,92.6,1001.0,323.5,0.8,1.3,316.3,0.00,22.5,25.0,"03:32:16",1
"22/07/11","03:50",0.0,23.8,92.7,1001.0,319.9,0.8,1.1,322.6,0.00,22.6,25.2,"03:40:02",1
"22/07/11","04:00",0.0,23.9,92.8,1001.2,308.1,1.0,1.6,316.4,0.00,22.7,25.1,"03:57:28",1
"22/07/11","04:10",0.0,23.9,92.8,1001.0,310.3,1.0,1.3,314.8,0.00,22.7,25.1,"04:00:32",1
"22/07/11","04:20",0.0,23.9,92.9,1001.0,288.7,0.8,1.2,298.5,0.00,22.7,25.1,"04:16:32",1
"22/07/11","04:30",0.0,23.9,93.0,1001.0,281.0,0.8,1.1,270.9,0.00,22.7,25.1,"04:20:56",1
"22/07/11","04:40",0.0,24.0,93.0,1001.2,310.2,0.8,1.4,335.9,0.00,22.8,25.1,"04:38:32",1
"22/07/11","04:50",0.0,24.1,93.1,1001.2,318.9,0.8,1.2,350.4,0.00,23.0,25.2,"04:48:48",1
"22/07/11","05:00",0.0,24.2,93.0,1001.0,336.1,0.8,1.2,344.5,0.00,23.0,25.1,"04:58:48",1
"22/07/11","05:10",0.0,24.2,93.1,1001.0,315.2,0.8,1.1,320.6,0.00,23.1,25.0,"05:02:24",1
"22/07/11","05:20",0.0,24.1,93.1,1000.8,295.1,0.6,0.8,322.3,0.00,23.0,25.1,"05:19:12",1
"22/07/11","05:30",0.0,24.1,93.2,1001.0,304.5,0.8,1.2,334.6,0.00,23.0,25.0,"05:24:24",1
"22/07/11","05:40",0.0,24.1,93.2,1001.2,327.9,1.0,1.4,308.0,0.00,23.0,25.2,"05:33:36",1
"22/07/11","05:50",0.0,24.3,93.2,1001.2,332.8,0.7,1.1,323.6,0.00,23.2,24.9,"05:42:56",1
"22/07/11","06:00",0.0,24.4,93.2,1001.5,337.4,0.8,1.1,345.7,0.00,23.3,25.0,"05:54:56",1
"22/07/11","06:10",0.0,24.4,93.2,1001.5,325.3,0.7,1.1,336.1,0.00,23.3,25.1,"06:09:36",1
"22/07/11","06:20",0.0,24.4,93.2,1001.5,312.8,1.0,1.6,315.7,0.00,23.3,24.8,"06:18:40",1
"22/07/11","06:30",0.0,24.4,93.3,1001.7,295.3,1.0,1.7,309.6,0.00,23.3,25.0,"06:25:52",1
"22/07/11","06:40",0.0,24.6,93.2,1001.5,296.1,1.0,1.3,325.9,0.01,23.5,25.0,"06:36:08",1
"22/07/11","06:50",0.0,24.8,93.1,1001.7,296.0,1.0,1.3,318.4,0.03,23.6,25.1,"06:40:16",1
"22/07/11","07:00",0.0,25.0,93.0,1001.9,283.4,0.8,1.3,267.6,0.03,23.8,24.8,"06:52:48",1
"22/07/11","07:10",0.0,25.1,92.7,1001.9,309.9,1.1,1.8,318.5,0.05,23.9,25.0,"07:02:40",1
"22/07/11","07:20",0.0,25.5,92.5,1001.9,304.8,0.7,1.2,324.5,0.06,24.2,25.1,"07:16:48",1
"22/07/11","07:30",0.0,25.7,92.2,1001.7,325.7,1.0,1.8,340.2,0.06,24.4,24.9,"07:26:56",1
"22/07/11","07:40",0.0,26.0,91.4,1001.5,302.2,0.7,1.2,336.8,0.08,24.5,25.1,"07:30:48",1
"22/07/11","07:50",0.0,26.3,90.9,1001.7,228.1,0.5,1.0,238.9,0.10,24.7,25.0,"07:41:04",1
"22/07/11","08:00",0.0,26.6,90.0,1001.7,250.5,0.6,1.1,224.3,0.12,24.9,24.9,"07:57:28",1
"22/07/11","08:10",0.0,26.8,88.6,1001.7,228.7,0.6,1.3,219.7,0.15,24.8,24.9,"08:03:52",1
"22/07/11","08:20",0.0,27.4,87.2,1000.8,266.8,0.3,1.0,232.1,0.16,25.1,25.0,"08:10:40",1
"22/07/11","08:30",0.0,28.1,85.2,1001.2,134.8,0.6,1.8,127.0,0.23,25.4,25.0,"08:26:32",1
"22/07/11","08:40",0.0,28.4,82.0,1001.7,92.8,0.5,1.3,359.6,0.16,25.1,24.8,"08:39:20",1
"22/07/11","08:50",0.0,28.7,79.7,1001.7,15.4,0.5,1.4,312.7,0.19,24.9,25.0,"08:43:12",1
"22/07/11","09:00",0.0,29.1,77.4,1001.7,21.3,0.6,1.7,4.9,0.21,24.8,24.9,"08:59:44",1
"22/07/11","09:10",0.0,29.1,76.0,1001.7,7.1,1.1,2.0,5.1,0.24,24.5,24.9,"09:01:28",1
"22/07/11","09:20",0.0,30.0,74.9,1001.9,30.9,0.6,1.6,358.3,0.37,25.1,24.9,"09:18:16",1
"22/07/11","09:30",0.0,30.6,71.9,1002.6,34.3,0.8,1.9,17.1,0.41,25.0,25.2,"09:25:28",1
"22/07/11","09:40",0.0,31.4,71.1,1002.6,79.6,0.6,2.6,129.6,0.45,25.6,25.2,"09:37:04",1
"22/07/11","09:50",0.0,31.3,68.2,1002.9,201.2,0.7,2.1,186.2,0.44,24.8,25.2,"09:49:04",1
"22/07/11","10:00",0.0,30.7,70.3,1003.1,170.8,1.2,1.9,142.0,0.35,24.7,25.2,"09:50:56",1
"22/07/11","10:10",0.0,30.5,71.2,1002.9,152.8,1.1,3.3,206.1,0.28,24.7,25.2,"10:09:52",1
"22/07/11","10:20",0.0,30.8,71.6,1002.9,199.3,0.8,2.7,231.2,0.34,25.1,25.0,"10:10:48",1
"22/07/11","10:30",0.0,31.2,71.1,1002.9,149.5,0.8,1.9,223.5,0.34,25.4,25.0,"10:28:16",1
"22/07/11","10:40",0.0,30.8,70.5,1003.1,188.6,1.3,2.7,219.0,0.28,24.9,25.4,"10:38:24",1
"22/07/11","10:50",0.0,30.7,70.8,1002.9,175.4,1.2,2.2,162.0,0.32,24.8,25.3,"10:41:44",1
"22/07/11","11:00",0.0,31.7,69.2,1002.9,133.3,0.8,2.1,141.0,0.45,25.4,25.5,"10:51:12",1
"22/07/11","11:10",0.0,31.7,68.8,1002.9,186.4,1.7,4.2,237.1,0.47,25.3,25.4,"11:08:00",1
"22/07/11","11:20",0.0,31.9,67.9,1002.9,207.5,1.2,3.1,218.4,0.56,25.3,25.6,"11:10:08",1
"22/07/11","11:30",0.0,32.1,67.2,1002.9,208.8,1.6,3.9,190.6,0.58,25.3,25.3,"11:20:02",1
"22/07/11","11:40",0.0,32.7,65.9,1002.6,183.5,1.6,4.2,194.5,0.60,25.5,25.5,"11:30:08",1
"22/07/11","11:50",0.0,33.0,66.6,1003.1,180.3,1.5,3.3,179.2,0.60,26.0,25.4,"11:40:08",1
"22/07/11","12:00",0.0,32.1,65.2,1002.6,182.3,1.7,3.4,118.0,0.37,24.8,25.6,"11:50:24",1
"22/07/11","12:10",0.0,31.8,68.0,1002.4,179.7,1.8,4.8,206.7,0.34,25.2,25.7,"12:00:48",1
"22/07/11","12:20",0.0,32.0,68.4,1002.2,317.7,1.7,7.3,198.0,0.42,25.5,25.6,"12:11:36",1
"22/07/11","12:30",0.0,31.4,67.7,1002.2,337.2,1.8,4.0,340.2,0.31,24.7,25.5,"12:25:28",1
"22/07/11","12:40",0.0,31.2,69.0,1001.9,309.9,1.2,4.3,352.9,0.17,24.9,25.7,"12:30:02",1
"22/07/11","12:50",0.0,31.2,69.3,1001.9,345.2,2.0,3.1,357.2,0.26,24.9,25.8,"12:46:40",1
"22/07/11","13:00",0.0,31.6,68.1,1001.9,312.3,1.1,2.7,232.7,0.26,25.0,25.9,"12:59:44",1
"22/07/11","13:10",0.0,32.1,66.0,1001.9,243.2,1.2,3.3,205.4,0.35,25.0,26.0,"13:09:28",1
"22/07/11","13:20",0.0,32.8,66.2,1002.4,303.3,1.1,2.6,349.3,0.50,25.7,25.9,"13:19:04",1
"22/07/11","13:30",0.0,32.6,65.1,1002.6,318.9,1.6,3.9,336.1,0.47,25.2,25.9,"13:28:40",1
"22/07/11","13:40",0.0,32.5,65.8,1002.4,326.5,1.6,3.5,333.9,0.42,25.3,25.9,"13:37:28",1
"22/07/11","13:50",0.0,33.0,65.2,1002.2,320.3,1.2,3.1,343.3,0.50,25.6,26.2,"13:46:16",1
"22/07/11","14:00",0.0,32.6,64.1,1001.9,341.9,1.8,3.9,346.9,0.34,25.0,26.0,"13:54:24",1
"22/07/11","14:10",0.0,32.3,63.9,1001.7,330.5,1.7,3.7,354.3,0.28,24.6,26.0,"14:00:16",1
"22/07/11","14:20",0.0,32.4,63.9,1001.7,311.4,1.5,3.9,344.9,0.27,24.7,26.2,"14:13:28",1
"22/07/11","14:30",0.0,33.1,62.6,1001.9,272.1,1.1,2.6,250.0,0.36,25.0,26.4,"14:23:44",1
"22/07/11","14:40",0.0,32.6,63.2,1001.9,320.1,1.7,6.0,340.5,0.26,24.7,26.1,"14:34:56",1
"22/07/11","14:50",0.0,32.2,63.9,1001.7,308.0,1.2,4.7,353.6,0.21,24.5,26.2,"14:40:08",1
"22/07/11","15:00",0.0,32.2,63.9,1001.7,311.0,1.6,3.6,332.4,0.22,24.5,26.2,"14:51:28",1
"22/07/11","15:10",0.0,32.7,63.7,1001.7,317.8,1.2,3.5,332.6,0.34,25.0,26.2,"15:05:52",1
"22/07/11","15:20",0.0,32.8,62.8,1001.7,306.3,1.2,2.9,335.6,0.26,24.8,26.1,"15:19:28",1
"22/07/11","15:30",0.0,33.2,62.9,1001.5,323.4,1.2,3.4,349.1,0.36,25.2,26.4,"15:24:32",1
"22/07/11","15:40",0.0,33.4,62.0,1001.7,282.1,1.1,3.9,235.9,0.36,25.2,26.4,"15:32:24",1
"22/07/11","15:50",0.0,33.6,60.7,1001.7,290.0,0.8,2.6,329.7,0.30,25.0,26.4,"15:46:24",1
"22/07/11","16:00",0.0,33.4,61.7,1001.9,337.2,0.7,2.2,347.6,0.21,25.1,26.4,"15:58:16",1
"22/07/11","16:10",0.0,33.8,60.3,1001.9,304.5,0.8,2.6,316.5,0.37,25.1,26.4,"16:06:08",1
"22/07/11","16:20",0.0,33.7,58.0,1001.7,338.6,1.2,3.5,350.7,0.31,24.3,26.4,"16:16:24",1
"22/07/11","16:30",0.0,33.1,59.3,1001.9,353.3,1.0,2.2,7.1,0.10,24.1,26.4,"16:25:04",1
"22/07/11","16:40",0.0,33.1,60.6,1001.5,349.2,1.3,2.4,357.4,0.20,24.5,26.6,"16:36:32",1
"22/07/11","16:50",0.0,33.2,60.6,1001.2,256.5,0.7,2.5,237.5,0.18,24.6,26.5,"16:45:12",1
"22/07/11","17:00",0.0,32.7,61.2,1001.5,340.8,1.2,2.4,342.8,0.12,24.3,26.5,"16:50:56",1
"22/07/11","17:10",0.0,33.5,59.9,1001.5,266.5,0.8,2.1,252.7,0.22,24.7,26.3,"17:09:44",1
"22/07/11","17:20",0.0,33.0,60.3,1001.0,239.5,1.1,2.5,243.4,0.11,24.3,26.6,"17:10:24",1
"22/07/11","17:30",0.0,32.5,61.4,1001.0,209.8,1.5,2.5,219.3,0.08,24.2,26.6,"17:21:28",1
"22/07/11","17:40",0.0,32.7,62.0,1000.8,228.8,0.8,1.9,216.0,0.07,24.5,26.8,"17:30:08",1
"22/07/11","17:50",0.0,32.9,63.0,1000.8,191.9,0.7,2.4,215.6,0.07,25.0,26.5,"17:40:08",1
"22/07/11","18:00",0.0,32.4,64.2,1000.5,206.8,1.2,2.9,225.8,0.06,24.8,26.6,"17:53:52",1
"22/07/11","18:10",0.0,32.0,65.7,1000.3,219.7,1.6,2.9,224.8,0.05,24.8,26.7,"18:06:24",1
"22/07/11","18:20",0.0,31.5,66.1,999.8,237.3,1.8,3.4,230.2,0.04,24.4,26.6,"18:13:52",1
"22/07/11","18:30",0.0,31.2,66.6,999.8,235.2,1.0,2.2,239.0,0.03,24.3,26.6,"18:23:52",1
"22/07/11","18:40",0.0,31.0,67.3,999.8,331.5,0.8,2.4,328.3,0.02,24.3,26.4,"18:38:48",1
"22/07/11","18:50",0.0,30.6,67.8,999.6,321.8,1.0,2.0,303.0,0.02,24.0,26.7,"18:49:12",1
"22/07/11","19:00",0.0,30.4,68.5,999.3,325.9,0.8,2.2,330.4,0.01,24.0,26.5,"18:50:48",1
"22/07/11","19:10",0.0,30.2,69.4,999.6,311.0,0.7,1.6,8.8,0.01,24.0,26.8,"19:05:36",1
"22/07/11","19:20",0.0,29.8,71.4,999.3,321.0,1.0,2.4,323.4,0.00,24.1,26.7,"19:17:52",1
"22/07/11","19:30",0.0,29.5,71.9,998.9,353.2,1.3,2.2,4.6,0.00,23.9,26.6,"19:23:20",1
"22/07/11","19:40",0.0,29.4,72.5,998.9,345.6,1.0,1.9,329.2,0.00,24.0,26.7,"19:37:36",1
"22/07/11","19:50",0.0,29.2,73.3,998.9,345.1,1.1,2.2,354.8,0.00,24.0,26.5,"19:45:44",1
"22/07/11","20:00",0.0,29.0,75.4,999.3,3.1,0.8,1.6,356.0,0.00,24.2,26.5,"19:55:28",1
"22/07/11","20:10",0.0,28.5,77.7,999.3,343.8,0.8,1.8,348.4,0.00,24.3,26.7,"20:03:28",1
"22/07/11","20:20",0.0,28.1,79.4,999.6,339.7,1.0,1.7,341.8,0.00,24.2,26.6,"20:13:20",1
"22/07/11","20:30",0.0,27.8,80.8,999.6,324.5,1.2,2.0,330.3,0.00,24.2,26.7,"20:27:52",1
"22/07/11","20:40",0.0,27.6,81.7,1000.0,328.2,1.1,1.7,330.1,0.00,24.2,26.3,"20:31:36",1
"22/07/11","20:50",0.0,27.4,82.5,1000.0,322.2,0.8,1.3,344.6,0.00,24.2,26.6,"20:40:16",1
"22/07/11","21:00",0.0,27.1,83.1,1000.0,299.3,0.8,1.7,324.3,0.00,24.0,26.6,"20:58:08",1
"22/07/11","21:10",0.0,27.0,83.6,1000.5,309.6,1.2,2.1,348.2,0.00,24.0,26.4,"21:07:12",1
"22/07/11","21:20",0.0,27.0,83.9,1000.8,329.2,1.5,2.5,333.6,0.00,24.1,26.3,"21:16:56",1
"22/07/11","21:30",0.0,27.0,84.1,1000.8,314.5,1.0,2.5,338.3,0.00,24.1,26.6,"21:21:04",1
"22/07/11","21:40",0.0,26.8,84.2,1001.0,300.4,1.1,2.6,307.4,0.00,23.9,26.4,"21:32:16",1
"22/07/11","21:50",0.0,26.7,84.2,1000.8,338.6,1.3,2.6,309.9,0.00,23.8,26.2,"21:42:08",1
"22/07/11","22:00",0.0,26.7,84.3,1001.0,320.7,0.8,1.6,3.8,0.00,23.9,26.5,"21:50:24",1
"22/07/11","22:10",0.0,26.5,84.5,1001.5,334.2,1.2,1.7,341.5,0.00,23.7,26.3,"22:04:48",1
"22/07/11","22:20",0.0,26.5,84.5,1001.0,328.7,1.6,2.7,348.1,0.00,23.7,26.4,"22:15:20",1
"22/07/11","22:30",0.0,26.4,84.4,1001.5,336.7,1.5,2.7,342.6,0.00,23.6,26.3,"22:25:44",1
"22/07/11","22:40",0.0,26.4,84.2,1001.5,322.8,1.6,2.8,341.7,0.00,23.6,26.2,"22:32:24",1
"22/07/11","22:50",0.0,26.4,84.1,1001.2,321.3,1.5,2.6,321.4,0.00,23.5,26.1,"22:45:20",1
"22/07/11","23:00",0.0,26.3,84.1,1001.5,329.8,1.5,2.4,337.6,0.00,23.4,26.2,"22:54:56",1
"22/07/11","23:10",0.0,26.3,84.3,1001.9,339.5,1.6,2.7,352.2,0.00,23.5,26.2,"23:03:44",1
"22/07/11","23:20",0.0,26.2,84.4,1001.9,340.2,1.5,2.6,333.5,0.00,23.4,26.1,"23:10:08",1
"22/07/11","23:30",0.0,26.1,84.1,1001.9,345.4,1.7,3.2,336.7,0.00,23.2,26.3,"23:24:48",1
"22/07/11","23:40",0.0,26.3,83.4,1001.7,333.7,1.3,2.4,340.7,0.00,23.3,26.1,"23:31:12",1
"22/07/11","23:50",0.0,26.3,82.5,1001.9,321.4,1.6,2.9,320.7,0.00,23.1,26.2,"23:49:12",1
"22/07/11","24:00",0.0,26.5,81.6,1001.7,306.3,1.3,3.1,334.8,0.00,23.1,26.0,"23:57:28",1
